Location: Detroit
(42.3310°N, 83.0460°W)
Time: 00:43:39
(UTC-05:00)

Courier 1B Rocket - Visible Passes

Search period start: 30 January 2023 00:00
Search period end: 09 February 2023 00:00
Orbit: 920 x 1202 km, 28.3° (Epoch: 29 January)

Date Brightness Start Highest point End Pass type
(mag) Time Alt. Az. Time Alt. Az. Time Alt. Az.
30 Jan 7.0 18:08:38 10° SSW 18:11:57 15° SSE 18:15:18 10° SE visible
30 Jan 6.4 19:59:33 10° SW 20:04:18 22° S 20:05:17 22° SSE visible
31 Jan 6.6 18:59:04 10° SW 19:03:33 21° S 19:08:03 10° SE visible
31 Jan 6.8 20:51:18 10° SW 20:54:25 20° SSW 20:54:25 20° SSW visible
01 Feb 6.5 19:50:31 10° SW 19:55:14 22° S 19:57:12 19° SSE visible
02 Feb 6.6 18:49:51 10° SW 18:54:27 22° S 18:59:09 10° SE visible
02 Feb 6.8 20:42:38 10° SW 20:46:22 19° SSW 20:46:22 19° SSW visible
03 Feb 6.7 19:41:38 10° SW 19:46:09 21° S 19:49:12 15° SSE visible
04 Feb 6.7 18:40:46 10° SW 18:45:24 22° S 18:50:02 10° SE visible
04 Feb 6.9 20:34:14 10° SW 20:37:47 16° SSW 20:38:28 15° S visible
05 Feb 6.9 19:32:57 10° SW 19:37:03 18° SSW 19:41:12 10° SSE visible
06 Feb 6.9 18:31:51 10° SW 18:36:19 20° S 18:40:46 10° SE visible
06 Feb 7.2 20:26:33 10° SW 20:28:38 12° SSW 20:30:45 10° S visible
07 Feb 7.1 19:24:34 10° SW 19:27:56 15° SSW 19:31:20 10° SSE visible
08 Feb 7.1 18:23:08 10° SW 18:27:13 18° SSW 18:31:18 10° SSE visible
